Time,TemperatureF,DewpointF,PressureIn,WindDirection,WindDirectionDegrees,WindSpeedMPH,WindSpeedGustMPH,Humidity,HourlyPrecipIn,Conditions,Clouds,dailyrainin,SoftwareType,DateUTC
2013-10-08 00:00:00,60.6,55.8,29.99,WSW,244,22.0,26.0,84,0.00,RA,RA,0.00,WeatherDisplay:10.37,2013-10-07 23:00:00,
2013-10-08 00:10:00,60.7,56.2,29.99,West,266,20.0,29.0,85,0.00,CLR,CLR,0.00,WeatherDisplay:10.37,2013-10-07 23:10:00,
2013-10-08 00:20:00,60.8,55.9,29.99,West,273,15.0,27.0,84,0.00,CLR,CLR,0.00,WeatherDisplay:10.37,2013-10-07 23:20:00,
2013-10-08 00:30:00,60.6,56.1,30.00,SW,235,17.0,27.0,85,0.00,CLR,CLR,0.00,WeatherDisplay:10.37,2013-10-07 23:30:00,
2013-10-08 00:40:00,60.5,56.0,30.00,West,278,16.0,27.0,85,0.00,CLR,CLR,0.00,WeatherDisplay:10.37,2013-10-07 23:40:00,
2013-10-08 00:50:00,60.3,56.1,30.00,SW,231,15.0,23.0,86,0.00,CLR,CLR,0.00,WeatherDisplay:10.37,2013-10-07 23:50:00,
2013-10-08 01:00:00,60.3,56.1,30.00,WSW,247,14.0,29.0,86,0.00,CLR,CLR,0.00,WeatherDisplay:10.37,2013-10-08 00:00:00,
2013-10-08 01:10:00,60.3,56.1,30.00,West,273,18.0,26.0,86,0.00,CLR,CLR,0.00,WeatherDisplay:10.37,2013-10-08 00:10:00,
2013-10-08 01:20:00,59.9,55.7,30.00,WSW,250,15.0,26.0,86,0.00,CLR,CLR,0.00,WeatherDisplay:10.37,2013-10-08 00:20:00,
2013-10-08 01:30:00,59.9,55.4,30.00,WNW,287,12.0,24.0,85,0.00,CLR,CLR,0.00,WeatherDisplay:10.37,2013-10-08 00:30:00,
2013-10-08 01:40:00,60.3,56.1,30.00,West,274,18.0,24.0,86,0.00,CLR,CLR,0.00,WeatherDisplay:10.37,2013-10-08 00:40:00,
2013-10-08 01:50:00,59.9,55.7,30.01,West,261,16.0,24.0,86,0.00,CLR,CLR,0.00,WeatherDisplay:10.37,2013-10-08 00:50:00,
2013-10-08 02:00:00,59.9,55.7,30.01,WNW,292,12.0,22.0,86,0.00,CLR,CLR,0.00,WeatherDisplay:10.37,2013-10-08 01:00:00,
2013-10-08 02:10:00,60.1,55.9,30.01,WSW,246,12.0,17.0,86,0.00,CLR,CLR,0.00,WeatherDisplay:10.37,2013-10-08 01:10:00,
2013-10-08 02:20:00,60.1,56.2,30.01,West,277,14.0,18.0,87,0.00,CLR,CLR,0.00,WeatherDisplay:10.37,2013-10-08 01:20:00,
2013-10-08 02:30:00,60.1,56.2,30.01,West,266,15.0,21.0,87,0.00,CLR,CLR,0.00,WeatherDisplay:10.37,2013-10-08 01:30:00,
2013-10-08 02:40:00,60.1,56.2,30.01,West,280,12.0,20.0,87,0.00,CLR,CLR,0.00,WeatherDisplay:10.37,2013-10-08 01:40:00,
2013-10-08 02:50:00,60.1,55.9,30.01,West,277,14.0,20.0,86,0.00,CLR,CLR,0.00,WeatherDisplay:10.37,2013-10-08 01:50:00,
2013-10-08 03:00:00,60.2,56.0,30.01,West,268,14.0,21.0,86,0.00,CLR,CLR,0.00,WeatherDisplay:10.37,2013-10-08 02:00:00,
2013-10-08 03:10:00,60.1,56.2,30.01,West,267,13.0,21.0,87,0.00,CLR,CLR,0.00,WeatherDisplay:10.37,2013-10-08 02:10:00,
2013-10-08 03:20:00,60.1,56.2,30.02,West,274,14.0,21.0,87,0.00,CLR,CLR,0.00,WeatherDisplay:10.37,2013-10-08 02:20:00,
2013-10-08 03:30:00,60.3,56.4,30.02,WSW,255,13.0,20.0,87,0.00,CLR,CLR,0.00,WeatherDisplay:10.37,2013-10-08 02:30:00,
2013-10-08 03:40:00,59.9,55.7,30.02,West,278,14.0,21.0,86,0.00,CLR,CLR,0.00,WeatherDisplay:10.37,2013-10-08 02:40:00,
2013-10-08 03:50:00,59.5,54.7,30.02,WNW,295,10.0,20.0,84,0.00,CLR,CLR,0.00,WeatherDisplay:10.37,2013-10-08 02:50:00,
2013-10-08 04:00:00,59.5,54.7,30.03,NW,305,9.0,14.0,84,0.00,CLR,CLR,0.00,WeatherDisplay:10.37,2013-10-08 03:00:00,
2013-10-08 04:10:00,59.4,54.2,30.03,WNW,298,7.0,14.0,83,0.00,CLR,CLR,0.00,WeatherDisplay:10.37,2013-10-08 03:10:00,
2013-10-08 04:20:00,59.0,53.8,30.03,WNW,283,9.0,13.0,83,0.00,CLR,CLR,0.00,WeatherDisplay:10.37,2013-10-08 03:20:00,
2013-10-08 04:30:00,58.8,54.0,30.03,WNW,295,9.0,14.0,84,0.00,CLR,CLR,0.00,WeatherDisplay:10.37,2013-10-08 03:30:00,
2013-10-08 04:40:00,58.8,54.0,30.03,West,272,8.0,13.0,84,0.00,CLR,CLR,0.00,WeatherDisplay:10.37,2013-10-08 03:40:00,
2013-10-08 04:50:00,59.0,53.8,30.03,WNW,290,7.0,13.0,83,0.00,CLR,CLR,0.00,WeatherDisplay:10.37,2013-10-08 03:50:00,
2013-10-08 05:00:00,59.0,53.8,30.04,WNW,294,7.0,11.0,83,0.00,CLR,CLR,0.00,WeatherDisplay:10.37,2013-10-08 04:00:00,
2013-10-08 05:10:00,61.2,55.0,29.97,NW,306,8.0,15.0,80,0.00,CLR,CLR,0.00,WeatherDisplay:10.37,2013-10-08 04:10:00,
2013-10-08 05:20:00,58.8,54.0,30.05,WNW,294,7.0,15.0,84,0.00,CLR,CLR,0.00,WeatherDisplay:10.37,2013-10-08 04:20:00,
2013-10-08 05:30:00,59.0,53.5,30.05,NW,305,8.0,13.0,82,0.00,CLR,CLR,0.00,WeatherDisplay:10.37,2013-10-08 04:30:00,
2013-10-08 05:40:00,59.0,53.5,30.05,West,271,10.0,14.0,82,0.00,CLR,CLR,0.00,WeatherDisplay:10.37,2013-10-08 04:40:00,
2013-10-08 05:50:00,59.2,53.7,30.06,WNW,286,7.0,14.0,82,0.00,CLR,CLR,0.00,WeatherDisplay:10.37,2013-10-08 04:50:00,
2013-10-08 06:00:00,59.4,54.2,30.06,WNW,299,9.0,14.0,83,0.00,CLR,CLR,0.00,WeatherDisplay:10.37,2013-10-08 05:00:00,
2013-10-08 06:10:00,61.9,54.6,30.06,WNW,303,5.0,15.0,77,0.00,CLR,CLR,0.00,WeatherDisplay:10.37,2013-10-08 05:10:00,
2013-10-08 06:20:00,62.2,53.8,30.06,WNW,298,5.0,14.0,74,0.00,CLR,CLR,0.00,WeatherDisplay:10.37,2013-10-08 05:20:00,
2013-10-08 06:30:00,62.2,53.1,30.06,WNW,285,7.0,15.0,72,0.00,CLR,CLR,0.00,WeatherDisplay:10.37,2013-10-08 05:30:00,
2013-10-08 06:40:00,61.9,52.8,30.06,West,279,6.0,16.0,72,0.00,CLR,CLR,0.00,WeatherDisplay:10.37,2013-10-08 05:40:00,
2013-10-08 06:50:00,61.5,52.4,30.07,WNW,285,8.0,14.0,72,0.00,CLR,CLR,0.00,WeatherDisplay:10.37,2013-10-08 05:50:00,
2013-10-08 07:00:00,61.2,52.1,30.07,West,267,8.0,13.0,72,0.00,CLR,CLR,0.00,WeatherDisplay:10.37,2013-10-08 06:00:00,
2013-10-08 07:10:00,60.6,51.9,30.07,NW,305,5.0,13.0,73,0.00,CLR,CLR,0.00,WeatherDisplay:10.37,2013-10-08 06:10:00,
2013-10-08 07:20:00,60.0,51.6,30.08,NW,304,6.0,8.0,74,0.00,CLR,CLR,0.00,WeatherDisplay:10.37,2013-10-08 06:20:00,
2013-10-08 07:30:00,60.1,52.1,30.08,West,265,7.0,9.0,75,0.00,CLR,CLR,0.00,WeatherDisplay:10.37,2013-10-08 06:30:00,
2013-10-08 07:40:00,59.9,52.0,30.08,WSW,245,5.0,11.0,75,0.00,CLR,CLR,0.00,WeatherDisplay:10.37,2013-10-08 06:40:00,
2013-10-08 07:50:00,60.2,51.9,30.08,West,269,7.0,12.0,74,0.00,CLR,CLR,0.00,WeatherDisplay:10.37,2013-10-08 06:50:00,
2013-10-08 08:00:00,60.6,52.3,30.09,West,271,8.0,13.0,74,0.00,CLR,CLR,0.00,WeatherDisplay:10.37,2013-10-08 07:00:00,
2013-10-08 08:10:00,61.2,52.5,30.09,WNW,301,3.0,13.0,73,0.00,CLR,CLR,0.00,WeatherDisplay:10.37,2013-10-08 07:10:00,
2013-10-08 08:20:00,60.8,52.1,30.10,WNW,302,3.0,9.0,73,0.00,CLR,CLR,0.00,WeatherDisplay:10.37,2013-10-08 07:20:00,
2013-10-08 08:30:00,61.3,52.2,30.09,NW,304,5.0,12.0,72,0.00,CLR,CLR,0.00,WeatherDisplay:10.37,2013-10-08 07:30:00,
2013-10-08 08:40:00,61.4,52.3,30.09,WNW,298,7.0,14.0,72,0.00,CLR,CLR,0.00,WeatherDisplay:10.37,2013-10-08 07:40:00,
2013-10-08 08:50:00,61.8,52.3,30.10,West,259,7.0,17.0,71,0.00,CLR,CLR,0.00,WeatherDisplay:10.37,2013-10-08 07:50:00,
2013-10-08 09:00:00,61.2,52.1,30.10,West,277,3.0,13.0,72,0.00,CLR,CLR,0.00,WeatherDisplay:10.37,2013-10-08 08:00:00,
2013-10-08 09:10:00,60.8,52.1,30.11,West,279,6.0,8.0,73,0.00,CLR,CLR,0.00,WeatherDisplay:10.37,2013-10-08 08:10:00,
2013-10-08 09:20:00,61.0,52.3,30.11,West,269,7.0,12.0,73,0.00,CLR,CLR,0.00,WeatherDisplay:10.37,2013-10-08 08:20:00,
2013-10-08 09:30:00,61.7,52.6,30.12,WNW,283,12.0,18.0,72,0.00,CLR,CLR,0.00,WeatherDisplay:10.37,2013-10-08 08:30:00,
2013-10-08 09:40:00,61.9,53.1,30.12,West,281,8.0,17.0,73,0.00,CLR,CLR,0.00,WeatherDisplay:10.37,2013-10-08 08:40:00,
2013-10-08 09:50:00,61.9,53.1,30.12,West,279,10.0,15.0,73,0.00,CLR,CLR,0.00,WeatherDisplay:10.37,2013-10-08 08:50:00,
2013-10-08 10:00:00,61.9,53.1,30.12,WNW,286,10.0,15.0,73,0.00,CLR,CLR,0.00,WeatherDisplay:10.37,2013-10-08 09:00:00,
2013-10-08 10:10:00,61.5,53.5,30.13,West,281,10.0,15.0,75,0.00,CLR,CLR,0.00,WeatherDisplay:10.37,2013-10-08 09:10:00,
2013-10-08 10:20:00,61.7,53.3,30.13,West,281,6.0,15.0,74,0.00,CLR,CLR,0.00,WeatherDisplay:10.37,2013-10-08 09:20:00,
2013-10-08 10:30:00,61.7,53.3,30.13,WNW,286,8.0,14.0,74,0.00,CLR,CLR,0.00,WeatherDisplay:10.37,2013-10-08 09:30:00,
2013-10-08 10:40:00,63.0,53.8,30.14,West,276,7.0,15.0,72,0.00,CLR,CLR,0.00,WeatherDisplay:10.37,2013-10-08 09:40:00,
2013-10-08 10:50:00,64.0,54.4,30.14,WNW,284,5.0,16.0,71,0.00,CLR,CLR,0.00,WeatherDisplay:10.37,2013-10-08 09:50:00,
2013-10-08 11:00:00,64.4,53.6,30.14,West,271,5.0,10.0,68,0.00,CLR,CLR,0.00,WeatherDisplay:10.37,2013-10-08 10:00:00,
2013-10-08 11:10:00,62.5,53.4,30.14,WNW,284,6.0,8.0,72,0.00,CLR,CLR,0.00,WeatherDisplay:10.37,2013-10-08 10:10:00,
2013-10-08 11:20:00,63.3,53.0,30.15,West,281,6.0,12.0,69,0.00,CLR,CLR,0.00,WeatherDisplay:10.37,2013-10-08 10:20:00,
2013-10-08 11:30:00,63.5,53.1,30.15,WNW,301,8.0,15.0,69,0.00,CLR,CLR,0.00,WeatherDisplay:10.37,2013-10-08 10:30:00,
2013-10-08 11:40:00,63.7,52.5,30.15,WNW,301,12.0,15.0,67,0.00,CLR,CLR,0.00,WeatherDisplay:10.37,2013-10-08 10:40:00,
2013-10-08 11:50:00,63.8,52.6,30.16,WNW,291,12.0,17.0,67,0.00,CLR,CLR,0.00,WeatherDisplay:10.37,2013-10-08 10:50:00,
2013-10-08 12:00:00,64.1,52.9,30.16,WNW,302,7.0,17.0,67,0.00,CLR,CLR,0.00,WeatherDisplay:10.37,2013-10-08 11:00:00,
2013-10-08 12:10:00,64.6,52.5,30.16,NNW,332,7.0,13.0,65,0.00,CLR,CLR,0.00,WeatherDisplay:10.37,2013-10-08 11:10:00,
2013-10-08 12:20:00,63.5,51.1,30.16,WNW,298,13.0,17.0,64,0.00,CLR,CLR,0.00,WeatherDisplay:10.37,2013-10-08 11:20:00,
2013-10-08 12:30:00,60.0,51.7,30.17,WNW,289,12.0,21.0,74,0.00,CLR,CLR,0.00,WeatherDisplay:10.37,2013-10-08 11:30:00,
2013-10-08 12:40:00,62.4,53.3,30.17,WNW,286,10.0,17.0,72,0.00,CLR,CLR,0.00,WeatherDisplay:10.37,2013-10-08 11:40:00,
2013-10-08 12:50:00,65.4,53.3,30.17,WNW,293,8.0,17.0,65,0.00,CLR,CLR,0.00,WeatherDisplay:10.37,2013-10-08 11:50:00,
2013-10-08 13:00:00,66.9,52.6,30.17,West,281,7.0,15.0,60,0.00,CLR,CLR,0.00,WeatherDisplay:10.37,2013-10-08 12:00:00,
2013-10-08 13:10:00,61.7,50.6,30.17,West,279,9.0,20.0,67,0.00,CLR,CLR,0.00,WeatherDisplay:10.37,2013-10-08 12:10:00,
2013-10-08 13:20:00,63.8,51.8,30.16,WNW,301,6.0,15.0,65,0.00,CLR,CLR,0.00,WeatherDisplay:10.37,2013-10-08 12:20:00,
2013-10-08 13:30:00,64.6,52.1,30.16,NW,316,7.0,15.0,64,0.00,CLR,CLR,0.00,WeatherDisplay:10.37,2013-10-08 12:30:00,
2013-10-08 13:40:00,65.8,52.5,30.16,West,278,5.0,18.0,62,0.00,CLR,CLR,0.00,WeatherDisplay:10.37,2013-10-08 12:40:00,
2013-10-08 13:50:00,64.2,50.9,30.17,West,268,8.0,13.0,62,0.00,CLR,CLR,0.00,WeatherDisplay:10.37,2013-10-08 12:50:00,
2013-10-08 14:00:00,64.2,50.5,30.17,WNW,282,10.0,16.0,61,0.00,CLR,CLR,0.00,WeatherDisplay:10.37,2013-10-08 13:00:00,
2013-10-08 14:10:00,64.6,50.8,30.17,NW,309,10.0,15.0,61,0.00,CLR,CLR,0.00,WeatherDisplay:10.37,2013-10-08 13:10:00,
2013-10-08 14:20:00,64.1,49.9,30.17,WNW,291,9.0,20.0,60,0.00,CLR,CLR,0.00,WeatherDisplay:10.37,2013-10-08 13:20:00,
2013-10-08 14:30:00,64.4,50.2,30.16,West,276,7.0,14.0,60,0.00,CLR,CLR,0.00,WeatherDisplay:10.37,2013-10-08 13:30:00,
2013-10-08 14:40:00,65.5,51.2,30.17,WSW,237,9.0,16.0,60,0.00,CLR,CLR,0.00,WeatherDisplay:10.37,2013-10-08 13:40:00,
2013-10-08 14:50:00,64.3,51.8,30.17,WNW,286,12.0,21.0,64,0.00,CLR,CLR,0.00,WeatherDisplay:10.37,2013-10-08 13:50:00,
2013-10-08 15:00:00,62.6,51.9,30.17,WNW,300,16.0,22.0,68,0.00,CLR,CLR,0.00,WeatherDisplay:10.37,2013-10-08 14:00:00,
2013-10-08 15:10:00,62.2,51.5,30.17,West,275,12.0,20.0,68,0.00,CLR,CLR,0.00,WeatherDisplay:10.37,2013-10-08 14:10:00,
2013-10-08 15:20:00,62.8,51.2,30.17,WNW,282,7.0,15.0,66,0.00,CLR,CLR,0.00,WeatherDisplay:10.37,2013-10-08 14:20:00,
2013-10-08 15:30:00,60.9,51.0,30.17,WSW,253,8.0,10.0,70,0.00,CLR,CLR,0.00,WeatherDisplay:10.37,2013-10-08 14:30:00,
2013-10-08 15:40:00,59.5,50.9,30.18,SW,235,7.0,13.0,73,0.00,CLR,CLR,0.00,WeatherDisplay:10.37,2013-10-08 14:40:00,
2013-10-08 15:50:00,59.5,51.2,30.18,West,275,12.0,15.0,74,0.00,CLR,CLR,0.00,WeatherDisplay:10.37,2013-10-08 14:50:00,
2013-10-08 16:00:00,60.1,51.4,30.18,West,269,9.0,15.0,73,0.00,CLR,CLR,0.00,WeatherDisplay:10.37,2013-10-08 15:00:00,
2013-10-08 16:10:00,59.9,50.5,30.18,West,273,9.0,15.0,71,0.00,CLR,CLR,0.00,WeatherDisplay:10.37,2013-10-08 15:10:00,
2013-10-08 16:20:00,59.7,50.3,30.18,WSW,246,12.0,17.0,71,0.00,CLR,CLR,0.00,WeatherDisplay:10.37,2013-10-08 15:20:00,
2013-10-08 16:30:00,60.6,50.0,30.17,West,272,13.0,17.0,68,0.00,CLR,CLR,0.00,WeatherDisplay:10.37,2013-10-08 15:30:00,
2013-10-08 16:40:00,62.8,50.5,30.17,West,273,14.0,17.0,64,0.00,CLR,CLR,0.00,WeatherDisplay:10.37,2013-10-08 15:40:00,
2013-10-08 16:50:00,63.3,50.5,30.17,West,275,13.0,20.0,63,0.00,CLR,CLR,0.00,WeatherDisplay:10.37,2013-10-08 15:50:00,
2013-10-08 17:00:00,63.3,50.1,30.18,West,273,9.0,17.0,62,0.00,CLR,CLR,0.00,WeatherDisplay:10.37,2013-10-08 16:00:00,
2013-10-08 17:10:00,62.1,50.2,30.18,WNW,297,14.0,22.0,65,0.00,CLR,CLR,0.00,WeatherDisplay:10.37,2013-10-08 16:10:00,
2013-10-08 17:20:00,62.2,50.3,30.18,WNW,295,12.0,21.0,65,0.00,CLR,CLR,0.00,WeatherDisplay:10.37,2013-10-08 16:20:00,
2013-10-08 17:30:00,62.6,50.2,30.18,WNW,299,13.0,20.0,64,0.00,CLR,CLR,0.00,WeatherDisplay:10.37,2013-10-08 16:30:00,
2013-10-08 17:40:00,62.4,50.1,30.18,WNW,284,10.0,18.0,64,0.00,CLR,CLR,0.00,WeatherDisplay:10.37,2013-10-08 16:40:00,
2013-10-08 17:50:00,62.7,50.4,30.19,WNW,297,10.0,16.0,64,0.00,CLR,CLR,0.00,WeatherDisplay:10.37,2013-10-08 16:50:00,
2013-10-08 18:00:00,62.8,50.4,30.19,WNW,285,8.0,15.0,64,0.00,CLR,CLR,0.00,WeatherDisplay:10.37,2013-10-08 17:00:00,
2013-10-08 18:10:00,59.8,49.6,30.19,WNW,285,7.0,15.0,69,0.00,CLR,CLR,0.00,WeatherDisplay:10.37,2013-10-08 17:10:00,
2013-10-08 18:20:00,59.7,51.0,30.19,West,268,5.0,12.0,73,0.00,CLR,CLR,0.00,WeatherDisplay:10.37,2013-10-08 17:20:00,
2013-10-08 18:30:00,59.0,50.7,30.19,WNW,288,10.0,15.0,74,0.00,CLR,CLR,0.00,WeatherDisplay:10.37,2013-10-08 17:30:00,
2013-10-08 18:40:00,58.5,51.3,30.19,WNW,297,7.0,17.0,77,0.00,CLR,CLR,0.00,WeatherDisplay:10.37,2013-10-08 17:40:00,
2013-10-08 18:50:00,58.9,51.0,30.20,NW,315,10.0,15.0,75,0.00,CLR,CLR,0.00,WeatherDisplay:10.37,2013-10-08 17:50:00,
2013-10-08 19:00:00,58.7,50.8,30.20,WNW,295,9.0,15.0,75,0.00,CLR,CLR,0.00,WeatherDisplay:10.37,2013-10-08 18:00:00,
2013-10-08 19:10:00,58.3,50.4,30.20,WNW,298,12.0,17.0,75,0.00,CLR,CLR,0.00,WeatherDisplay:10.37,2013-10-08 18:10:00,
2013-10-08 19:20:00,57.7,50.2,30.20,WNW,297,10.0,17.0,76,0.00,CLR,CLR,0.00,WeatherDisplay:10.37,2013-10-08 18:20:00,
2013-10-08 19:30:00,58.1,50.9,30.20,NW,307,9.0,16.0,77,0.00,CLR,CLR,0.00,WeatherDisplay:10.37,2013-10-08 18:30:00,
2013-10-08 19:40:00,58.1,50.9,30.21,NE,41,5.0,13.0,77,0.00,CLR,CLR,0.00,WeatherDisplay:10.37,2013-10-08 18:40:00,
2013-10-08 19:50:00,57.7,50.2,30.21,NNW,341,5.0,13.0,76,0.00,CLR,CLR,0.00,WeatherDisplay:10.37,2013-10-08 18:50:00,
2013-10-08 20:00:00,57.2,49.7,30.21,North,8,6.0,13.0,76,0.00,CLR,CLR,0.00,WeatherDisplay:10.37,2013-10-08 19:00:00,
2013-10-08 20:10:00,57.1,49.6,30.21,WNW,302,5.0,12.0,76,0.00,CLR,CLR,0.00,WeatherDisplay:10.37,2013-10-08 19:10:00,
2013-10-08 20:20:00,57.0,49.9,30.21,NNW,339,5.0,10.0,77,0.00,CLR,CLR,0.00,WeatherDisplay:10.37,2013-10-08 19:20:00,
2013-10-08 20:30:00,56.8,49.7,29.95,NNE,14,3.0,8.0,77,0.00,CLR,CLR,0.00,WeatherDisplay:10.37,2013-10-08 19:30:00,
2013-10-08 20:40:00,56.3,49.2,30.21,NNW,348,3.0,9.0,77,0.00,CLR,CLR,0.00,WeatherDisplay:10.37,2013-10-08 19:40:00,
2013-10-08 20:50:00,56.8,49.4,30.21,WNW,293,5.0,12.0,76,0.00,CLR,CLR,0.00,WeatherDisplay:10.37,2013-10-08 19:50:00,
2013-10-08 21:00:00,57.6,49.3,30.21,WNW,302,8.0,15.0,74,0.00,CLR,CLR,0.00,WeatherDisplay:10.37,2013-10-08 20:00:00,
2013-10-08 21:10:00,57.5,49.3,30.21,NW,305,9.0,15.0,74,0.00,CLR,CLR,0.00,WeatherDisplay:10.37,2013-10-08 20:10:00,
2013-10-08 21:20:00,57.6,49.3,30.22,NW,318,10.0,15.0,74,0.00,CLR,CLR,0.00,WeatherDisplay:10.37,2013-10-08 20:20:00,
2013-10-08 21:30:00,56.7,49.2,30.22,WNW,296,8.0,15.0,76,0.00,CLR,CLR,0.00,WeatherDisplay:10.37,2013-10-08 20:30:00,
2013-10-08 21:40:00,56.9,49.4,30.21,WNW,299,9.0,14.0,76,0.00,CLR,CLR,0.00,WeatherDisplay:10.37,2013-10-08 20:40:00,
2013-10-08 21:50:00,56.5,49.0,30.22,West,276,9.0,14.0,76,0.00,CLR,CLR,0.00,WeatherDisplay:10.37,2013-10-08 20:50:00,
2013-10-08 22:00:00,57.0,49.5,30.22,WNW,292,8.0,14.0,76,0.00,CLR,CLR,0.00,WeatherDisplay:10.37,2013-10-08 21:00:00,
2013-10-08 22:10:00,57.2,49.3,30.22,WNW,290,8.0,15.0,75,0.00,CLR,CLR,0.00,WeatherDisplay:10.37,2013-10-08 21:10:00,
2013-10-08 22:20:00,57.7,49.9,30.22,NW,305,7.0,13.0,75,0.00,CLR,CLR,0.00,WeatherDisplay:10.37,2013-10-08 21:20:00,
2013-10-08 22:30:00,57.6,49.7,30.22,West,276,8.0,13.0,75,0.00,CLR,CLR,0.00,WeatherDisplay:10.37,2013-10-08 21:30:00,
2013-10-08 22:40:00,57.7,49.5,30.23,WNW,299,10.0,13.0,74,0.00,CLR,CLR,0.00,WeatherDisplay:10.37,2013-10-08 21:40:00,
2013-10-08 22:50:00,57.7,49.1,30.22,NW,320,9.0,16.0,73,0.00,CLR,CLR,0.00,WeatherDisplay:10.37,2013-10-08 21:50:00,
2013-10-08 23:00:00,57.4,48.8,30.22,NW,311,8.0,15.0,73,0.00,CLR,CLR,0.00,WeatherDisplay:10.37,2013-10-08 22:00:00,
2013-10-08 23:10:00,57.4,48.4,30.23,NW,308,9.0,15.0,72,0.00,CLR,CLR,0.00,WeatherDisplay:10.37,2013-10-08 22:10:00,
2013-10-08 23:20:00,57.3,48.3,30.22,WNW,298,9.0,15.0,72,0.00,CLR,CLR,0.00,WeatherDisplay:10.37,2013-10-08 22:20:00,
2013-10-08 23:30:00,57.4,48.1,30.22,WNW,301,10.0,14.0,71,0.00,CLR,CLR,0.00,WeatherDisplay:10.37,2013-10-08 22:30:00,
2013-10-08 23:40:00,57.3,47.6,30.22,WNW,293,13.0,16.0,70,0.00,CLR,CLR,0.00,WeatherDisplay:10.37,2013-10-08 22:40:00,
2013-10-08 23:50:00,57.4,47.7,30.22,NW,304,10.0,20.0,70,0.00,CLR,CLR,0.00,WeatherDisplay:10.37,2013-10-08 22:50:00,